Greensboro Piedmont-Triad Airport (GSO)

 

Airport Diagram
Current Weather/Forecast (VFR Conditions)
METAR KGSO 260254Z 00000KT 10SM FEW017 OVC040 19/18 A3017 RMK AO2 SLP210 T01940183 51010
TAF KGSO 252320Z 2600/2624 07003KT P6SM SCT015 OVC035 FM260500 08003KT 3SM BR OVC007 FM261400 07006KT P6SM OVC015 FM262000 08008KT P6SM OVC050

All Charts
General
Chart Name Download
AIRPORT DIAGRAM
TAKEOFF MINIMUMS
ALTERNATE MINIMUMS
HOT SPOT

Departures
Chart Name Download
QUAKER SEVEN
TRIAD NINE
TRSHA ONE (RNAV)

Arrivals
Chart Name Download
BLOCC TWO
BROOK FOUR
HENBY THREE
TRAKS THREE (RNAV)

Approaches
Chart Name Download
ILS OR LOC RWY 05L
ILS OR LOC RWY 05R
ILS OR LOC RWY 23L
ILS OR LOC RWY 23R
ILS Y OR LOC/DME Y RWY 32
ILS Z OR LOC/DME Z RWY 32
ILS RWY 23L (CAT II)
ILS RWY 05L (CAT II - III)
ILS RWY 05R (SA CAT II)
RNAV (GPS) RWY 05L
RNAV (GPS) RWY 05R
RNAV (GPS) RWY 14
RNAV (GPS) RWY 23L
RNAV (GPS) RWY 23R
RNAV (GPS) RWY 32
VOR/DME RWY 23L


Inbound Traffic (Arrivals)

No inbound traffic.


Outbound Traffic (Departures)

No outbound traffic.